• In Belarus
  • List of Countries
  • For 7 days
  • Water Temperature
  • Satellite Maps
  • Weather Map
  • Weather Widgets
  • user-avatar
    Login

    Hourly Weather Kolencevo

    Today, 19 June, Tuesday

    Time Temperature Precipitation Wind Pressure Humidity
    00:00 +17°C° 0 mm 2 mps 748 mmHg 84%
    01:00 +16°C° 0 mm 2 mps 748 mmHg 87%
    02:00 +16°C° 0 mm 2 mps 748 mmHg 90%
    03:00 +17°C° 0 mm 2 mps 748 mmHg 90%
    04:00 +17°C° 0 mm 2 mps 748 mmHg 89%
    05:00 +18°C° 0 mm 2 mps 748 mmHg 88%
    06:00 +20°C° 0 mm 2 mps 748 mmHg 83%
    07:00 +21°C° 0 mm 2 mps 748 mmHg 77%
    08:00 +24°C° 0 mm 2 mps 748 mmHg 72%
    09:00 +25°C° 0.1 mm 3 mps 747 mmHg 65%
    10:00 +26°C° 0.1 mm 3 mps 747 mmHg 59%
    11:00 +27°C° 0.1 mm 3 mps 747 mmHg 52%
    12:00 +27°C° 0.1 mm 3 mps 746 mmHg 51%
    13:00 +28°C° 0.1 mm 4 mps 746 mmHg 49%
    14:00 +28°C° 0.1 mm 4 mps 746 mmHg 48%
    15:00 +27°C° 0.2 mm 4 mps 746 mmHg 53%
    16:00 +26°C° 0.2 mm 4 mps 745 mmHg 57%
    17:00 +26°C° 0.2 mm 4 mps 745 mmHg 62%
    18:00 +24°C° 0.1 mm 3 mps 745 mmHg 67%
    19:00 +21°C° 0.1 mm 3 mps 744 mmHg 72%
    20:00 +20°C° 0.1 mm 3 mps 744 mmHg 77%
    21:00 +19°C° 0 mm 3 mps 744 mmHg 77%
    22:00 +18°C° 0 mm 3 mps 744 mmHg 77%
    23:00 +17°C° 0 mm 3 mps 743 mmHg 77%

    Tomorrow, 20 June, Wednesday

    Time Temperature Precipitation Wind Pressure Humidity
    00:00 +17°C° 0.1 mm 4 mps 744 mmHg 80%
    01:00 +16°C° 0.1 mm 5 mps 744 mmHg 83%
    02:00 +15°C° 0.1 mm 5 mps 744 mmHg 86%
    03:00 +14°C° 0 mm 5 mps 744 mmHg 85%
    04:00 +13°C° 0 mm 5 mps 745 mmHg 85%
    05:00 +13°C° 0 mm 5 mps 745 mmHg 84%
    06:00 +14°C° 0 mm 5 mps 746 mmHg 74%
    07:00 +15°C° 0 mm 6 mps 746 mmHg 65%
    08:00 +17°C° 0 mm 6 mps 746 mmHg 55%
    09:00 +19°C° 0 mm 6 mps 746 mmHg 50%
    10:00 +20°C° 0 mm 6 mps 746 mmHg 46%
    11:00 +21°C° 0 mm 6 mps 746 mmHg 41%
    12:00 +22°C° 0 mm 6 mps 746 mmHg 41%
    13:00 +22°C° 0 mm 6 mps 746 mmHg 40%
    14:00 +23°C° 0 mm 6 mps 746 mmHg 39%
    15:00 +22°C° 0 mm 6 mps 746 mmHg 42%
    16:00 +22°C° 0 mm 5 mps 746 mmHg 45%
    17:00 +22°C° 0 mm 5 mps 745 mmHg 48%
    18:00 +20°C° 0 mm 4 mps 746 mmHg 53%
    19:00 +19°C° 0 mm 3 mps 746 mmHg 59%
    20:00 +17°C° 0 mm 2 mps 746 mmHg 64%
    21:00 +16°C° 0 mm 2 mps 746 mmHg 66%
    22:00 +15°C° 0 mm 2 mps 746 mmHg 69%
    23:00 +14°C° 0 mm 2 mps 747 mmHg 71%

    Day after tomorrow, 21 June, Thursday

    Time Temperature Precipitation Wind Pressure Humidity
    00:00 +13°C° 0 mm 2 mps 747 mmHg 75%
    01:00 +13°C° 0 mm 2 mps 747 mmHg 79%
    02:00 +12°C° 0 mm 2 mps 747 mmHg 82%
    03:00 +12°C° 0 mm 2 mps 747 mmHg 79%
    04:00 +13°C° 0 mm 2 mps 747 mmHg 77%
    05:00 +13°C° 0 mm 3 mps 747 mmHg 74%
    06:00 +14°C° 0 mm 3 mps 747 mmHg 67%
    07:00 +17°C° 0 mm 3 mps 747 mmHg 60%
    08:00 +18°C° 0 mm 4 mps 747 mmHg 53%
    09:00 +19°C° 0 mm 4 mps 747 mmHg 54%
    10:00 +19°C° 0 mm 4 mps 747 mmHg 55%
    11:00 +19°C° 0 mm 4 mps 747 mmHg 55%
    12:00 +20°C° 0 mm 4 mps 747 mmHg 54%
    13:00 +21°C° 0 mm 4 mps 747 mmHg 54%
    14:00 +23°C° 0 mm 5 mps 747 mmHg 53%
    15:00 +22°C° 0 mm 4 mps 747 mmHg 58%
    16:00 +22°C° 0 mm 3 mps 747 mmHg 63%
    17:00 +21°C° 0 mm 3 mps 746 mmHg 68%
    18:00 +20°C° 0 mm 2 mps 746 mmHg 73%
    19:00 +19°C° 0 mm 2 mps 747 mmHg 79%
    20:00 +19°C° 0 mm 1 mps 747 mmHg 84%
    21:00 +18°C° 0 mm 1 mps 747 mmHg 87%
    22:00 +17°C° 0 mm 2 mps 747 mmHg 89%
    23:00 +16°C° 0 mm 2 mps 747 mmHg 92%

    22 June, Friday

    Time Temperature Precipitation Wind Pressure Humidity
    00:00 +16°C° 0 mm 2 mps 746 mmHg 93%
    01:00 +16°C° 0 mm 2 mps 746 mmHg 93%
    02:00 +16°C° 0 mm 3 mps 746 mmHg 94%
    03:00 +17°C° 0 mm 3 mps 746 mmHg 91%
    04:00 +17°C° 0 mm 3 mps 745 mmHg 88%
    05:00 +18°C° 0 mm 4 mps 745 mmHg 85%
    06:00 +20°C° 0 mm 4 mps 745 mmHg 78%
    07:00 +22°C° 0 mm 5 mps 745 mmHg 70%
    08:00 +23°C° 0 mm 6 mps 745 mmHg 62%
    09:00 +24°C° 0 mm 6 mps 744 mmHg 58%
    10:00 +26°C° 0 mm 6 mps 744 mmHg 55%
    11:00 +28°C° 0 mm 6 mps 744 mmHg 51%
    12:00 +28°C° 0 mm 6 mps 743 mmHg 50%
    13:00 +28°C° 0 mm 6 mps 743 mmHg 50%
    14:00 +29°C° 0 mm 6 mps 743 mmHg 50%
    15:00 +29°C° 0 mm 6 mps 742 mmHg 53%
    16:00 +28°C° 0 mm 5 mps 742 mmHg 56%
    17:00 +28°C° 0 mm 5 mps 742 mmHg 59%
    18:00 +26°C° 0.2 mm 5 mps 742 mmHg 66%
    19:00 +23°C° 0.2 mm 4 mps 742 mmHg 73%
    20:00 +22°C° 0.2 mm 4 mps 742 mmHg 79%
    21:00 +21°C° 0.3 mm 3 mps 742 mmHg 84%
    22:00 +20°C° 0.3 mm 3 mps 743 mmHg 89%
    23:00 +18°C° 0.3 mm 2 mps 743 mmHg 93%

    23 June, Saturday

    Time Temperature Precipitation Wind Pressure Humidity
    00:00 +18°C° 0.1 mm 2 mps 743 mmHg 95%
    01:00 +17°C° 0.1 mm 2 mps 743 mmHg 96%
    02:00 +18°C° 0.1 mm 1 mps 743 mmHg 97%
    03:00 +18°C° 0.2 mm 1 mps 743 mmHg 97%
    04:00 +18°C° 0.2 mm 1 mps 743 mmHg 96%
    05:00 +18°C° 0.2 mm 1 mps 743 mmHg 95%
    06:00 +18°C° 0.7 mm 1 mps 743 mmHg 96%
    07:00 +17°C° 0.7 mm 2 mps 743 mmHg 96%
    08:00 +17°C° 0.7 mm 2 mps 743 mmHg 96%
    09:00 +16°C° 0.6 mm 2 mps 744 mmHg 96%
    10:00 +16°C° 0.6 mm 2 mps 744 mmHg 96%
    11:00 +16°C° 0.6 mm 2 mps 744 mmHg 95%
    12:00 +16°C° 0.2 mm 2 mps 744 mmHg 95%
    13:00 +15°C° 0.2 mm 2 mps 744 mmHg 95%
    14:00 +15°C° 0.2 mm 2 mps 745 mmHg 95%
    15:00 +15°C° 0.1 mm 2 mps 745 mmHg 95%
    16:00 +15°C° 0.1 mm 2 mps 745 mmHg 94%
    17:00 +15°C° 0.1 mm 2 mps 745 mmHg 93%
    18:00 +15°C° 0 mm 2 mps 745 mmHg 94%
    19:00 +14°C° 0 mm 2 mps 744 mmHg 94%
    20:00 +14°C° 0 mm 1 mps 744 mmHg 95%
    21:00 +14°C° 0.1 mm 2 mps 744 mmHg 95%
    22:00 +13°C° 0.1 mm 2 mps 744 mmHg 95%
    23:00 +13°C° 0.1 mm 2 mps 744 mmHg 95%

    24 June, Sunday

    Time Temperature Precipitation Wind Pressure Humidity
    00:00 +13°C° 0.4 mm 2 mps 745 mmHg 96%
    01:00 +13°C° 0.4 mm 2 mps 745 mmHg 96%
    02:00 +13°C° 0.4 mm 2 mps 745 mmHg 96%
    03:00 +13°C° 0.4 mm 2 mps 745 mmHg 96%
    04:00 +13°C° 0.4 mm 2 mps 745 mmHg 97%
    05:00 +13°C° 0.4 mm 2 mps 745 mmHg 97%
    06:00 +14°C° 0.1 mm 2 mps 745 mmHg 92%
    07:00 +15°C° 0.1 mm 2 mps 746 mmHg 88%
    08:00 +16°C° 0.1 mm 2 mps 746 mmHg 84%
    09:00 +17°C° 0 mm 2 mps 746 mmHg 74%
    10:00 +19°C° 0 mm 3 mps 746 mmHg 64%
    11:00 +21°C° 0 mm 3 mps 746 mmHg 55%
    12:00 +21°C° 0.1 mm 3 mps 747 mmHg 52%
    13:00 +22°C° 0.1 mm 4 mps 747 mmHg 50%
    14:00 +22°C° 0.1 mm 4 mps 747 mmHg 47%
    15:00 +22°C° 0.1 mm 4 mps 747 mmHg 50%
    16:00 +22°C° 0.1 mm 4 mps 747 mmHg 53%
    17:00 +21°C° 0.1 mm 4 mps 747 mmHg 56%
    18:00 +19°C° 0 mm 3 mps 748 mmHg 64%
    19:00 +17°C° 0 mm 2 mps 748 mmHg 72%
    20:00 +16°C° 0 mm 2 mps 748 mmHg 80%
    21:00 +14°C° 0 mm 2 mps 749 mmHg 84%
    22:00 +13°C° 0 mm 2 mps 749 mmHg 89%
    23:00 +12°C° 0 mm 2 mps 749 mmHg 93%
    Show more